World > North America > United States > Utah

Genola, Utah Regional Weather

Lat: 39.99N, Lon: 111.85W
Wx Zone: UTZ004Web Search

Helpful Tip: Type the letters wx in the search engine next time you need to find us.

Feedback


°F Click to change Genola hourly weather to Imperial units.Click to change Genola hourly weather to Metric units. °C
Genola Weather Map
UTC Time: 4/16/2021, 00:11
Your Time:

Genola, UT Regional Weather

Expires:202104160100;;615104
ASUS45 KSLC 160010
RWRUT 

UTAH REGIONAL WEATHER ROUNDUP
NATIONAL WEATHER SERVICE SALT LAKE CITY UT
600 PM MDT THU APR 15 2021


UTZ001>011-023>025-160100-

NORTHERN UTAH
  
CITY           SKY/WX    TMP DP  RH WIND       PRES   REMARKS
BRIGHAM CITY   CLOUDY    43  33  67 CALM      30.00S                  
HILL AFB       PTSUNNY   45  31  57 NW8       29.98R                  
LOGAN          LGT RAIN  42  34  73 NW12      29.99R                  
OGDEN          PTSUNNY   47  32  56 NW7       29.97R                  
SALT LAKE CITY PTSUNNY   47  34  60 W12       29.98R                  
TOOELE VALLEY  CLOUDY    45  37  76 CALM      30.01R                  
WENDOVER       PTSUNNY   48  27  44 NE14G21   30.00R                  
HEBER CITY     MOCLDY    37  32  81 W6        29.94S WCI  33          
WEST JORDAN    PTSUNNY   45  38  76 NW13      29.98S                  

$$


SKY/WX - Weather  TMP - Temperature  DP - Dew Point  RH - Relative Humidity
WIND - Wind Direction/Speed PRES - Barometric Pressure VSB - Visibility
WCI - Wind Chill Index E13G22 Wind - East Wind 13 mph/Gusts of 22 mph